Weather History for CYBW - November, 2013

Change the Weather History Date:

Wednesday, November 20, 2013

  Actual Average Record
Temperature  
Mean Temperature -6 °F -  
Max Temperature 8 °F 29 °F 60 °F (2002)
Min Temperature -19 °F 10 °F -25 °F (1996)
Degree Days  
Heating Degree Days 70    
Moisture  
Dew Point -13 °F    
Average Humidity 70    
Maximum Humidity 84    
Minimum Humidity 52    
Precipitation  
Precipitation 0.01 in - - ()
Sea Level Pressure  
Sea Level Pressure 30.40 in    
Wind  
Wind Speed 5 mph ()    
Max Wind Speed 12 mph    
Max Gust Speed 18 mph    
Visibility 13.9 miles    
Events      
Averages and records for this station are not official NWS values.
T = Trace of Precipitation, MM = Missing Value Source: Averaged Metar Reports

Daily Weather History Graph

Daily Weather History Graph

Search for Another Location

Airport or City:

Trip Planner

Search our weather history database for the weather conditions in past years. The results will help you decide how hot, cold, wet, or windy it might be!

Date:

Astronomy

Nov. 20, 2013 Rise Set
Actual Time 8:03 AM MST 4:42 PM MST
Civil Twilight 7:25 AM MST 5:20 PM MST
Nautical Twilight 6:44 AM MST 6:01 PM MST
Astronomical Twilight 6:05 AM MST 6:40 PM MST
Moon 7:29 PM MST (11/20) 10:31 AM MST (11/20)
Length of Visible Light 9h 54m
Length of Day
8h 39m
Waning Gibbous, 91% of the Moon is Illuminated
Nov 20
Waning Gibbous
Nov 25
Last Quarter
Dec 2
New
Dec 9
First Quarter
Dec 17
Full

Hourly Weather History & Observations

Time (MST) Temp. Windchill Dew Point Humidity Pressure Visibility Wind Dir Wind Speed Gust Speed Precip Events Conditions
5:00 AM -9 °F - -14 °F 65% 30.32 in 10 mi WSW 5.8 mph - -   Partly Cloudy
5:00 AM -9.4 °F -22.7 °F -14.8 °F 77% 30.32 in 10.0 mi WSW 5.8 mph - N/A   Scattered Clouds
6:00 AM -14.8 °F -30.8 °F -18.4 °F 84% 30.36 in 15.0 mi West 6.9 mph - N/A   Clear
7:00 AM -16.6 °F -31.3 °F -20.2 °F 84% 30.38 in 15.0 mi NW 5.8 mph - N/A   Clear
8:00 AM -14.8 °F -30.8 °F -20.2 °F 77% 30.40 in 30.0 mi NW 6.9 mph - N/A   Partly Cloudy
9:00 AM -14.8 °F -27.2 °F -18.4 °F 84% 30.40 in 30.0 mi NW 4.6 mph - N/A   Clear
10:00 AM -14.8 °F -27.2 °F -20.2 °F 77% 30.42 in 30.0 mi NNW 4.6 mph - N/A   Clear
11:00 AM -12 °F - -18 °F 61% 30.43 in 28 mi NW 4.6 mph - -  
11:00 AM -11.2 °F -23.0 °F -18.4 °F 70% 30.43 in 30.0 mi NW 4.6 mph - N/A   Clear
12:00 PM -7.6 °F -18.8 °F -13.0 °F 77% 30.40 in 30.0 mi WNW 4.6 mph - N/A   Clear
1:00 PM -4.0 °F -12.4 °F -9.4 °F 78% 30.39 in 30.0 mi WNW 3.5 mph - N/A   Partly Cloudy
2:00 PM -0.4 °F - -7.6 °F 72% 30.38 in 40.0 mi WNW 2.3 mph - N/A   Partly Cloudy
3:00 PM -0.4 °F -8.3 °F -9.4 °F 66% 30.37 in 40.0 mi NW 3.5 mph - N/A   Scattered Clouds
4:00 PM -2.2 °F -12.5 °F -11.2 °F 66% 30.39 in 40.0 mi NW 4.6 mph - N/A   Partly Cloudy
5:00 PM -4 °F - -11 °F 59% 30.42 in 37 mi NW 3.5 mph - -   Scattered Clouds
5:00 PM -4.0 °F -12.4 °F -11.2 °F 71% 30.42 in 40.0 mi WNW 3.5 mph - N/A   Partly Cloudy
6:00 PM -4.0 °F -20.2 °F -11.2 °F 71% 30.45 in 15.0 mi WNW 9.2 mph - N/A   Partly Cloudy
7:00 PM -2.2 °F -16.8 °F -11.2 °F 66% 30.46 in 15.0 mi NW 8.1 mph - N/A   Clear
8:00 PM 8.6 °F -6.3 °F -5.8 °F 52% 30.43 in 15.0 mi WNW 11.5 mph 18.4 mph N/A   Clear
9:00 PM 5.0 °F -4.1 °F -7.6 °F 56% 30.44 in 15.0 mi NE 4.6 mph - N/A   Clear
10:00 PM 5.0 °F -2.1 °F -7.6 °F 56% 30.45 in 15.0 mi WNW 3.5 mph - N/A   Clear